Location: Axtheid
(49.6213°N, 11.8205°E)
Time: 13:28:01
(UTC+00:00)

S3M - Visible Passes

Search period start: 16 May 2021 00:00
Search period end: 26 May 2021 00:00
Orbit: 949 x 1004 km, 83.0° (Epoch: 15 May)

Date Brightness Start Highest point End Pass type
(mag) Time Alt. Az. Time Alt. Az. Time Alt. Az.
16 May 5.8 20:02:40 10° SW 20:08:23 34° WNW 20:14:05 10° N visible
17 May 6.6 20:29:52 10° WSW 20:34:36 22° WNW 20:39:19 10° NNW visible
18 May 6.9 20:58:08 10° W 21:01:02 13° NW 21:03:55 10° NNW visible
19 May 5.7 19:34:23 10° SW 19:40:13 38° WNW 19:46:03 10° N visible
20 May 6.5 20:01:25 10° WSW 20:06:24 24° WNW 20:11:21 10° N visible
21 May 6.9 20:29:22 10° W 20:32:46 15° WNW 20:36:10 10° NNW visible
23 May 6.5 19:33:00 10° WSW 19:38:12 26° WNW 19:43:22 10° N visible
24 May 6.9 20:00:42 10° W 20:04:32 16° WNW 20:08:21 10° NNW visible
